Temp
80 76 77 71 70 71 71 70 71 70 71 73 73 71 71 74 74 74 74 74 72 71 71 70 70 70 69 68 69 71 86 85
75 75 77 79 78 70 70 70 70 70 70 70 70 69 69 69 70 72 72 72 71 71 70 70 70 68 68 67 68 71 86 85
77 74 76 76 79 78 71 70 70 70 70 68 68 74 69 69 69 71 71 68 69 70 69 68 68 68 67 68 68 85 85 86
79 73 74 75 76 77 80 81 80 79 78 75 77 73 72 76 72 70 69 67 68 68 68 67 70 78 77 70 84 83 84 84
82 77 80 78 73 74 81 83 81 77 77 75 73 74 75 74 70 71 69 69 68 69 71 78 78 77 79 81 82 81 84 84
81 76 76 73 73 72 75 79 81 76 78 75 72 72 71 73 70 72 66 68 66 70 75 75 75 78 80 80 79 82 82 83
81 73 71 71 70 71 70 76 73 72 74 77 77 73 74 70 69 68 66 66 67 71 75 73 76 79 79 78 78 79 78 81
81 75 73 75 73 69 69 72 73 70 70 73 76 72 69 68 67 67 66 65 66 73 75 73 77 79 78 78 77 77 77 79
77 72 71 73 75 70 67 67 69 70 70 71 70 70 68 67 67 65 65 65 65 71 74 75 77 79 77 77 77 76 78 77
77 72 71 74 70 69 67 67 67 69 68 68 69 70 69 68 66 64 64 62 64 69 74 74 76 77 76 77 77 77 76 77
76 73 72 71 69 68 67 67 67 65 65 65 67 70 70 68 66 66 64 61 62 70 74 75 74 76 76 77 77 77 76 77
76 70 70 70 70 67 66 66 65 64 63 64 65 64 65 66 66 63 65 61 61 69 72 73 76 76 75 75 75 76 76 76
76 68 69 68 66 63 63 63 64 63 65 66 65 65 63 64 63 62 63 61 61 65 73 72 72 74 72 69 71 72 72 73
75 72 69 69 69 67 65 63 64 65 65 65 66 69 65 63 62 61 61 61 61 67 70 71 72 73 70 69 59 63 67 71
76 74 74 72 72 71 71 65 65 63 63 64 65 69 64 63 62 61 61 62 61 67 71 71 68 72 74 72 63 63 65 70
77 76 72 74 75 71 69 65 60 66 66 61 66 65 61 61 62 61 61 63 63 67 72 71 71 68 71 75 76 75 66 62
76 75 72 75 74 72 71 65 64 69 65 61 62 62 61 60 60 60 61 63 66 69 69 69 71 71 69 70 71 72 73 71
73 72 70 73 73 71 67 65 65 67 63 63 60 60 60 60 60 60 61 62 67 67 68 69 70 70 69 67 70 69 69 70
68 72 67 69 72 71 70 70 67 65 67 63 61 60 59 59 59 60 59 60 64 67 65 66 67 68 69 71 70 71 74 72
65 68 65 67 70 71 68 68 65 65 66 68 66 63 63 64 60 59 60 59 60 61 61 61 64 64 67 68 70 69 71 72
MSLP
1007.92 1008.47 1008.86 1009.37 1009.73 1009.95 1010.43 1010.54 1010.80 1011.10 1011.52 1011.69 1011.83 1012.48 1012.88 1013.21 1013.48 1013.83 1014.42 1015.07 1015.61 1016.10 1016.63 1017.11 1017.60 1018.28 1018.49 1018.62 1018.79 1018.67 1018.05 1018.48
1008.31 1008.65 1008.78 1008.85 1009.43 1009.97 1010.30 1010.63 1010.83 1011.08 1011.49 1011.86 1012.53 1013.09 1013.45 1012.65 1013.70 1014.83 1014.91 1015.36 1015.96 1016.23 1016.93 1017.49 1018.03 1018.60 1018.91 1019.04 1019.17 1019.05 1018.46 1018.87
1008.08 1008.52 1008.77 1008.83 1008.89 1009.45 1010.20 1010.57 1010.77 1011.17 1011.57 1011.92 1012.45 1012.98 1013.49 1014.61 1014.22 1015.19 1015.12 1015.90 1016.21 1016.45 1017.12 1017.71 1018.43 1019.03 1019.32 1019.50 1019.30 1018.36 1018.72 1018.80
1008.03 1008.41 1008.74 1008.82 1009.16 1009.37 1009.65 1009.86 1010.35 1010.76 1011.28 1011.82 1012.06 1012.80 1013.37 1013.84 1014.24 1014.93 1015.05 1015.84 1016.52 1016.76 1017.33 1017.75 1018.32 1018.68 1019.41 1019.74 1018.54 1018.66 1018.87 1019.14
1007.48 1008.34 1008.36 1008.80 1009.22 1009.35 1009.10 1009.22 1009.78 1010.56 1011.07 1011.72 1012.19 1012.64 1013.30 1013.69 1014.35 1014.66 1014.98 1015.64 1016.21 1017.10 1017.76 1017.43 1017.76 1018.18 1018.79 1018.86 1018.77 1019.28 1019.01 1019.24
1007.18 1008.08 1008.37 1008.98 1008.95 1009.49 1009.47 1009.37 1009.27 1010.16 1010.70 1011.56 1012.12 1012.58 1013.10 1013.40 1014.01 1014.54 1015.20 1015.79 1016.15 1016.45 1016.91 1017.30 1017.84 1017.92 1018.39 1018.80 1019.21 1019.06 1019.39 1019.52
1006.53 1008.01 1008.45 1008.97 1009.12 1009.48 1009.77 1009.60 1010.03 1010.44 1010.60 1010.98 1011.57 1012.34 1012.74 1013.43 1013.96 1014.60 1014.98 1015.68 1015.72 1016.07 1016.54 1017.41 1017.78 1017.92 1018.60 1019.12 1019.31 1019.46 1019.95 1019.94
1006.23 1007.48 1008.33 1008.75 1008.99 1009.60 1009.71 1009.71 1009.81 1010.59 1010.89 1011.03 1011.32 1011.98 1012.66 1013.48 1013.99 1014.55 1015.01 1015.53 1015.71 1015.78 1016.41 1017.40 1017.54 1017.83 1018.60 1019.12 1019.47 1019.79 1020.12 1020.06
1005.99 1007.14 1008.22 1008.71 1008.72 1009.49 1009.77 1009.92 1010.09 1010.53 1010.83 1011.27 1011.66 1012.11 1012.60 1013.22 1013.91 1014.52 1014.99 1015.51 1015.91 1015.99 1016.44 1016.99 1017.34 1017.72 1018.55 1019.25 1019.53 1019.94 1020.00 1020.31
1005.84 1006.80 1007.78 1008.39 1008.78 1009.40 1009.70 1009.91 1010.06 1010.47 1010.90 1011.35 1011.65 1011.93 1012.52 1013.12 1013.80 1014.50 1014.99 1015.61 1016.04 1016.19 1016.49 1016.85 1017.24 1017.66 1018.39 1018.86 1019.20 1019.80 1020.18 1020.46
1005.17 1006.18 1007.42 1008.16 1008.66 1009.37 1009.59 1009.84 1010.20 1010.52 1010.89 1011.28 1011.59 1011.81 1012.15 1012.74 1013.45 1014.10 1014.88 1015.54 1016.04 1016.04 1016.37 1016.51 1017.15 1017.54 1018.21 1018.73 1019.11 1019.65 1020.21 1020.33
1004.75 1006.03 1007.05 1007.87 1008.64 1009.19 1009.51 1009.84 1010.19 1010.43 1010.83 1011.14 1011.52 1011.80 1011.95 1012.22 1012.81 1013.78 1014.66 1015.51 1016.08 1016.05 1016.15 1016.64 1016.89 1017.37 1017.97 1018.66 1019.23 1019.54 1019.95 1020.28
1004.25 1005.66 1006.72 1007.60 1008.36 1008.86 1009.28 1009.48 1009.98 1010.39 1010.65 1010.83 1011.15 1011.42 1010.90 1011.67 1012.70 1013.54 1014.15 1015.09 1015.74 1016.06 1015.84 1016.22 1016.92 1017.42 1017.96 1018.78 1019.28 1019.83 1020.29 1020.46
1003.72 1005.05 1006.20 1007.10 1007.73 1008.29 1008.79 1009.27 1009.82 1010.07 1010.34 1010.54 1010.76 1010.98 1011.48 1011.22 1011.84 1013.11 1013.89 1014.86 1015.59 1015.83 1015.80 1016.10 1016.54 1017.27 1017.40 1018.12 1019.07 1020.26 1020.41 1020.42
1003.16 1004.33 1005.37 1006.47 1007.00 1007.55 1008.10 1008.99 1009.59 1009.98 1010.13 1010.32 1010.44 1010.39 1011.03 1011.36 1011.60 1012.65 1013.55 1014.36 1015.07 1015.30 1015.42 1015.70 1016.18 1016.94 1016.92 1017.01 1017.82 1018.09 1019.22 1019.82
1002.84 1003.91 1004.94 1005.71 1006.35 1006.98 1007.55 1008.33 1009.11 1009.39 1009.59 1010.19 1010.27 1010.49 1010.78 1011.02 1011.48 1012.24 1013.20 1013.92 1014.67 1015.01 1015.31 1015.57 1015.89 1016.50 1016.86 1016.76 1016.65 1016.62 1017.53 1018.63
1002.51 1003.59 1004.80 1005.15 1005.89 1006.57 1007.18 1008.16 1008.76 1008.89 1009.49 1010.09 1010.38 1010.73 1011.01 1011.24 1011.46 1012.23 1012.77 1013.65 1014.32 1014.55 1015.05 1015.49 1015.84 1016.16 1016.54 1016.86 1017.13 1017.23 1017.29 1017.16
1002.33 1003.50 1004.56 1004.91 1005.50 1006.42 1007.05 1007.78 1008.42 1008.58 1009.38 1009.76 1010.26 1010.71 1011.11 1011.53 1011.79 1012.50 1012.98 1013.64 1014.04 1014.54 1014.95 1015.32 1015.62 1016.11 1016.57 1016.71 1016.75 1016.80 1016.89 1016.92
1002.46 1003.28 1004.36 1004.83 1005.32 1005.99 1006.71 1007.23 1008.14 1008.51 1008.95 1009.53 1010.11 1010.56 1010.98 1011.54 1011.95 1012.59 1013.06 1013.57 1014.00 1014.41 1014.81 1015.15 1015.57 1015.84 1016.24 1016.31 1016.67 1016.61 1016.52 1016.87
1002.64 1003.24 1004.39 1004.84 1005.36 1005.68 1006.59 1007.27 1008.08 1008.53 1008.77 1008.93 1009.59 1010.30 1010.75 1011.22 1011.83 1012.21 1013.04 1013.48 1013.87 1014.41 1014.91 1015.24 1015.48 1015.78 1015.96 1016.24 1016.35 1016.65 1016.75 1016.70
Wind_Speed
9 12 14 10 10 10 10 8 10 10 11 13 15 6 11 19 16 15 14 15 20 20 19 19 18 16 15 13 8 4 7 6
9 10 11 12 11 9 9 7 8 6 6 8 14 12 10 11 4 9 11 17 19 20 18 18 17 16 15 13 9 3 8 8
10 9 11 10 11 11 7 10 8 11 13 16 15 10 12 16 17 14 14 13 17 20 18 18 17 15 14 13 12 6 7 5
9 9 10 10 7 9 11 11 11 11 11 13 11 12 11 15 12 14 16 17 15 16 18 19 17 12 9 11 7 7 5 5
10 10 9 10 6 5 6 6 8 8 13 12 9 9 10 8 5 6 8 15 9 11 13 13 14 11 11 10 7 7 5 4
12 9 9 8 6 6 6 5 7 8 11 15 10 7 8 9 5 8 5 6 10 11 10 12 11 12 12 8 8 6 5 5
14 11 9 8 7 5 5 8 7 8 9 15 12 10 10 7 7 7 8 7 11 11 13 10 12 11 11 10 9 6 7 5
14 12 10 10 8 7 6 7 7 7 7 9 14 8 8 9 8 8 7 7 10 11 12 10 11 11 11 10 9 8 9 8
14 13 10 11 9 8 5 4 5 7 9 11 12 10 10 10 8 8 8 8 9 10 12 11 10 10 11 9 9 9 9 8
15 12 13 12 8 7 5 6 6 7 7 8 11 12 12 12 9 8 9 7 6 9 11 12 11 10 9 9 8 8 10 9
17 15 14 12 10 7 6 7 6 6 6 6 10 14 14 12 9 10 12 8 6 10 11 12 11 10 10 9 8 8 9 9
16 13 14 12 9 7 5 6 5 5 5 6 8 5 11 13 10 12 12 10 6 9 13 11 11 11 10 9 8 7 7 8
18 16 16 11 9 7 5 6 6 5 6 10 11 10 3 12 9 12 12 11 12 10 12 15 11 10 10 8 7 7 7 8
19 18 17 14 9 8 4 5 4 5 5 7 9 12 10 12 13 12 13 11 11 14 14 13 11 12 11 11 7 5 7 8
19 19 19 15 14 9 7 6 3 4 5 4 7 12 12 11 14 13 13 11 11 13 14 17 13 13 15 11 8 7 9 9
18 19 17 16 16 12 12 8 5 6 6 2 5 6 8 9 15 13 13 10 13 13 14 12 13 13 10 12 10 6 11 7
18 18 18 17 15 12 10 9 5 6 6 7 6 6 7 6 12 11 12 9 13 15 14 13 12 12 12 12 9 6 11 7
17 19 18 17 15 15 13 12 10 9 7 6 3 4 5 8 9 9 9 9 13 12 13 16 13 12 10 8 11 11 8 8
17 20 18 16 16 15 15 12 11 9 10 7 7 5 5 7 10 10 8 8 10 12 12 13 13 12 14 11 9 8 9 8
17 19 18 17 15 14 14 12 8 7 7 7 7 6 6 10 9 11 12 11 10 8 6 7 9 9 13 12 9 8 9 9
Wind_Direction
160 181 184 181 196 185 200 188 190 190 210 188 190 203 211 177 165 171 166 142 136 137 139 138 133 131 125 123 133 207 147 142
164 177 189 192 195 196 186 201 192 185 170 137 155 167 140 171 176 169 167 144 139 138 140 136 131 129 124 124 128 151 152 151
162 174 191 194 204 184 197 211 191 135 129 131 142 163 153 170 176 183 150 147 149 145 140 130 126 125 127 135 163 170 153 162
170 179 190 187 212 190 207 204 206 196 175 157 165 168 167 183 159 164 156 152 152 148 139 134 155 154 147 160 200 144 178 157
190 196 189 195 187 181 208 204 189 197 183 171 169 172 174 171 149 159 157 158 143 149 147 164 167 163 161 187 138 170 144 158
185 185 181 186 179 180 201 210 195 184 187 176 164 169 170 175 174 169 133 164 161 171 175 166 169 175 170 162 163 169 158 156
174 177 175 187 171 178 192 202 183 188 191 183 173 177 183 172 164 163 154 177 175 176 168 165 172 158 165 168 168 149 144 148
175 179 185 185 190 180 191 193 190 171 181 187 189 178 168 163 160 161 158 172 170 179 159 168 172 164 167 165 166 159 172 166
175 173 183 196 192 185 181 178 191 180 185 183 181 177 165 162 164 152 157 163 168 187 168 172 170 167 164 167 163 168 160 166
174 166 179 193 177 182 180 183 187 194 187 191 185 191 168 172 173 156 149 159 159 183 169 172 174 170 164 163 164 170 161 167
177 170 183 183 178 178 182 197 188 174 174 186 197 205 191 175 172 159 148 152 169 179 179 171 171 169 168 166 163 163 168 168
172 162 175 173 179 170 176 184 178 172 179 186 187 197 192 179 169 154 153 151 170 194 176 175 174 174 167 164 168 164 175 173
172 166 174 168 173 170 178 178 173 182 197 195 200 215 193 175 161 154 160 159 169 199 180 172 180 170 165 155 161 170 180 180
172 171 175 178 174 174 168 148 177 198 189 201 203 203 197 185 157 162 161 158 169 188 183 176 176 180 175 169 161 170 201 206
178 171 173 176 186 176 162 132 161 171 190 210 223 210 203 198 161 164 162 161 174 185 184 183 172 182 198 189 167 195 178 189
179 171 172 178 182 169 177 174 176 195 195 157 190 175 168 167 163 162 165 166 175 188 186 185 180 187 203 207 203 241 184 166
177 169 179 173 176 175 176 174 206 174 182 167 175 160 144 150 144 156 157 168 183 190 186 193 190 194 190 208 213 195 216 191
172 172 178 177 172 177 177 179 197 176 179 179 166 154 148 156 153 164 163 177 185 186 185 190 191 201 197 201 212 204 202 215
172 176 175 174 175 177 182 182 188 194 177 182 163 165 166 170 161 168 168 177 183 184 185 191 198 202 204 206 211 218 225 222
173 172 171 169 175 175 176 174 181 183 190 187 181 193 181 175 179 177 179 169 162 172 182 193 199 208 206 215 211 216 232 227